Regional Weather Roundup
Issued by NWS

Home | Current Version | Previous Version | Graphics & Text | Print | Product List | Glossary On
Versions: 1 2 3 4 5 6 7 8 9 10 11 12 13 14 15 16 17 18 19 20 21 22 23 24 25 26 27 28 29 30 31 32 33 34 35 36 37 38 39 40 41 42 43 44 45 46 47 48 49 50
593
ASUS43 KIND 242009
RWRIN

WEATHER ROUNDUP FOR INDIANA
NATIONAL WEATHER SERVICE INDIANAPOLIS IN
400 PM EDT WED MAY 24 2017

NOTE: "FAIR" INDICATES FEW OR NO CLOUDS BELOW 12,000 FEET WITH NO
SIGNIFICANT WEATHER AND/OR OBSTRUCTIONS TO VISIBILITY.

* - STATION DOES NOT REPORT WEATHER SUCH AS PRECIPITATION OR FOG.

+ - STATION NOT QUALITY CONTROLLED BY THE NATIONAL WEATHER SERVICE.
    USE DATA WITH CAUTION...ESPECIALLY DEWPOINT AND RELATIVE
    HUMIDITY OBSERVATIONS.

INZ001>003-010>013-019-020-242100-
NORTHWEST INDIANA

CITY           SKY/WX    TMP DP  RH WIND       PRES   REMARKS
GARY /AIRPORT/ CLOUDY    57  50  77 N14       29.54S
KNOX *+        CLOUDY    61  50  67 NW10      29.50R
LA PORTE +     DRIZZLE   60  55  84 E9G20     29.53R
MICHIGAN CITY+ CLOUDY    55  55 100 N8        29.51S
MONTICELLO +   LGT RAIN  62  57  86 CALM      29.49F
RENSSELAER +   LGT RAIN  63  55  77 N6        29.50S
VALPARAISO     CLOUDY    63  55  75 N8        29.51F

$$

LMZ046-743>745-242100-
SOUTHERN LAKE MICHIGAN

STATION/POSITION TIME  TEMP    WIND        PRES    WAVE
                       AIR SEA DIR/SP/G            HT
                 (UTC) (F)     (DEG/KT/KT) (MB)    (FT)
BURNS HARBOR     1940   52      10/  3/  5 1000.7R
MICHIGAN CITY    1940   53      20/ 11/ 13   N/A
5NW MICH CITY    2000   52 54   10/ 16/ 19   N/A     4

$$

INZ004-005-014>016-021>024-242100-
NORTH CENTRAL INDIANA

CITY           SKY/WX    TMP DP  RH WIND       PRES   REMARKS
ELKHART        CLOUDY    70  48  46 E9        29.47F
GOSHEN         CLOUDY    71  53  52 E7        29.46F
LOGANSPORT +   LGT RAIN  61  59  94 W5        29.49F
PERU/GRISSOM   LGT RAIN  60  59  99 W5        29.47S
ROCHESTER +    DRIZZLE   68  52  56 W6        29.48S
SOUTH BEND     LGT RAIN  60  58  92 W10       29.49S
WARSAW +       CLOUDY    66  55  68 CALM      29.47F

$$

INZ006>009-017-018-025>027-242100-
NORTHEAST INDIANA

CITY           SKY/WX    TMP DP  RH WIND       PRES   REMARKS
ANGOLA *+      CLOUDY    61  50  67 E9        29.50R
AUBURN +       LGT RAIN  59  55  88 NE6       29.50R
FORT WAYNE     CLOUDY    62  57  83 NW8       29.45F
HUNTINGTON +   LGT RAIN  57  56  95 CALM      29.47F
KENDALLVILLE + RAIN      60  57  87 E13G26    29.50R

$$

INZ028-029-035-036-043>045-051>053-242100-
WEST CENTRAL INDIANA

CITY           SKY/WX    TMP DP  RH WIND       PRES   REMARKS
CRAWFORDSVL +  LGT RAIN  56  56 100 N7        29.49S
GREENCASTLE +  LGT RAIN  59  55  88 N7        29.48F
LAFAYETTE      LGT RAIN  61  59  93 N6        29.49F FOG
TERRE HAUTE    LGT RAIN  61  57  87 N7        29.47F FOG

$$

INZ030>032-037>040-046>048-054>057-064-065-242100-
CENTRAL INDIANA

CITY           SKY/WX    TMP DP  RH WIND       PRES   REMARKS
ANDERSON       LGT RAIN N/A N/A N/A CALM      29.48
CP ATTERBURY + LGT RAIN  59  55  88 N9        29.45S
COLUMBUS       LGT RAIN  61  55  82 N18       29.44F
FISHERS *+     CLOUDY    57  57 100 N3        29.47S
FRANKFORT +    DRIZZLE   63  58  84 N8        29.50F
GREENWOOD *+   PTSUNNY   60  57  89 N12       29.45F
INDIANAPOLIS   LGT RAIN  60  58  92 NW9       29.45F FOG
-EAGLE CREEK   LGT RAIN  59  55  87 N12       29.46F
KOKOMO +       LGT RAIN  59  57  93 NW7       29.49F
MARION +       LGT RAIN  59  57  94 NW5       29.48S
MT COMFORT *+  CLOUDY    59  57  94 N10       29.46F
SHELBYVILLE    CLOUDY    62  56  80 N14       29.43F
ZIONSVILLE +   HVY RAIN  56  54  92 NW8       29.49S

$$

INZ033-034-041-042-049-050-058-059-242100-
EAST CENTRAL INDIANA

CITY           SKY/WX    TMP DP  RH WIND       PRES   REMARKS
MUNCIE         RAIN      61  58  90 NW7       29.45F FOG
RICHMOND +     LGT RAIN  55  55 100 NW8       29.44F

$$

INZ060-061-067>069-081>083-085>088-242100-
SOUTHWEST INDIANA

CITY           SKY/WX    TMP DP  RH WIND       PRES   REMARKS
EVANSVILLE     LGT RAIN  59  56  89 W8        29.49S
HUNTINGBURG *+ LGT RAIN  58  57  97 NW7       29.46F
WASHINGTON +   HVY RAIN  59  57  94 NW7       29.46F

$$

INZ062-063-066-070>080-084-089>092-242100-
SOUTH CENTRAL AND SOUTHEAST INDIANA

CITY           SKY/WX    TMP DP  RH WIND       PRES   REMARKS
BLOOMINGTON    LGT RAIN  60  55  83 VRB5      29.45F
MADISON *+     CLOUDY    61  59  94 NW9       29.42F
NORTH VERNON + RAIN      59  55  88 N9        29.43S
SEYMOUR +      LGT RAIN  63  59  88 N12       29.42F

$$





USA.gov is the U.S. government's official web portal to all federal, state and local government web resources and services.